This is the latest recevied weather packets stored in our database for station/object HB9FHL-13. If no packets are shown the sender has not sent any weather packets the latest 10 day(s).
| Time | Temp. | Humidity | Pressure | Rain* | Wind** | Luminosity | Snow |
|---|---|---|---|---|---|---|---|
| 1777548044 | 12.22° C | - | 1023.1 hPa | 0 mm | - | - | - |
| 1777547743 | 13.33° C | - | 1012.8 hPa | 0 mm | - | - | - |
| 1777547443 | 11.67° C | - | 1022.7 hPa | 0 mm | - | - | - |
| 1777547142 | 12.78° C | - | 1022.6 hPa | 0 mm | - | - | - |
| 1777546541 | 12.78° C | - | 1019.4 hPa | 0 mm | - | - | - |
| 1777546241 | 12.78° C | - | 1018.5 hPa | 0 mm | - | - | - |
| 1777545940 | 11.67° C | - | 1022 hPa | 0 mm | - | - | - |
| 1777545638 | 12.78° C | - | 1021.2 hPa | 0 mm | - | - | - |
| 1777545338 | 11.67° C | - | 1028.3 hPa | 0 mm | - | - | - |
| 1777545037 | 12.22° C | - | 1024.6 hPa | 0 mm | - | - | - |
| 1777544737 | 12.22° C | - | 1024.6 hPa | 0 mm | - | - | - |
| 1777544436 | 11.11° C | - | 1017.5 hPa | 0 mm | - | - | - |
| 1777544134 | 11.11° C | - | 1025.3 hPa | 0 mm | - | - | - |
| 1777543833 | 11.67° C | - | 1022.1 hPa | 0 mm | - | - | - |
| 1777543533 | 11.67° C | - | 1023 hPa | 0 mm | - | - | - |
| 1777543233 | 10.56° C | - | 1022.4 hPa | 0 mm | - | - | - |
| 1777542932 | 10.56° C | - | 1024.1 hPa | 0 mm | - | - | - |
| 1777542631 | 11.11° C | - | 1019.3 hPa | 0 mm | - | - | - |
| 1777542331 | 10° C | - | 1024.6 hPa | 0 mm | - | - | - |
| 1777542030 | 11.11° C | - | 1021.1 hPa | 0 mm | - | - | - |
| 1777541730 | 11.11° C | - | 1018.9 hPa | 0 mm | - | - | - |
| 1777541430 | 10° C | - | 1019.3 hPa | 0 mm | - | - | - |
| 1777541129 | 11.11° C | - | 1021.6 hPa | 0 mm | - | - | - |
| 1777540829 | 10.56° C | - | 1021.4 hPa | 0 mm | - | - | - |
| 1777540528 | 10° C | - | 1014.7 hPa | 0 mm | - | - | - |
* Rain since midnight (hover to see other rain measurements)
** Current wind speed in m/s (hover to see current wind gust speed)